Location: Newark
(42.8481°N, 0.4872°E)
Time: 08:58:36
(UTC+00:00)

Envisat - Visible Passes

Search period start: 20 September 2020 00:00
Search period end: 30 September 2020 00:00
Orbit: 764 x 766 km, 98.1° (Epoch: 20 September)

Date Brightness Start Highest point End Pass type
(mag) Time Alt. Az. Time Alt. Az. Time Alt. Az.
20 Sep 6.0 04:58:12 10° NE 05:01:47 19° E 05:05:21 10° SE visible
22 Sep 6.0 18:18:16 10° SW 18:22:07 21° W 18:25:59 10° NW visible
23 Sep 6.2 04:47:25 10° NE 04:50:18 15° E 04:53:10 10° SE visible
24 Sep 6.5 18:45:53 10° WSW 18:47:51 12° W 18:49:49 10° WNW visible
25 Sep 5.6 05:11:46 10° NE 05:16:00 26° E 05:20:13 10° SSE visible
26 Sep 6.5 04:37:03 10° ENE 04:38:48 12° E 04:40:32 10° ESE visible
27 Sep 6.2 18:33:21 10° SW 18:36:21 16° W 18:39:21 10° NW visible
28 Sep 6.0 05:00:45 10° NE 05:04:33 21° E 05:08:18 10° SE visible
